Starlink 11129

operational
NORAD ID: 60038 Int'l Des: 2024-112 Owner: SPXS Country: US Constellation: starlink
LEOCIRCULAR

Über Starlink 11129

Beschreibung wird geladen...

Live-Position

3D-Globus wird geladen...

Nächste Überflüge

Höhenverlauf

Altitude vs Time

uPlot chart will show altitude changes over time

Zweizeiliger Elementsatz

1 60038U 24112A 25260.68173196 .00004319 00000-0 40476-4 0 9995
2 60038 53.1581 39.4684 0001073 79.5686 280.5453 15.69719169 73807
Epoch: 17. Sept. 2025 • Age: 22 hours

Aktueller Status

Höhe 362.9 km
Geschwindigkeit 7.69 km/s
Subsatellitenpunkt -11.03°S, 6.85°E
Startdatum 8. Juni 2024
Alter 1.2 years
Typ internet

Technische Details

Klassifizierung Payload
Masse 960.00 kg
Trockenmasse 910.00 kg
Gesamtmasse 960.00 kg
Länge 0.30 m
Durchmesser 4.10 m
Spannweite 29.00 m
Form Box + pan
Hersteller SPXS
Bus-Typ Starlink V2MD
Phasenstatus In Orbit
Besitzer/Staat SPXS/US

Große Konstellationen

Loading constellations...